CAPE
0 0 0 0 0 0 0 0 0 0 0 3 1 0 0 0 0 0 0 0 498 1185 1417 1476 1471 1544 1731 2278 2359 1941 2059 2053
0 0 0 0 0 0 0 0 0 0 23 47 60 0 0 0 0 0 11 94 197 869 1554 1593 1510 1716 1908 2354 2481 2201 1717 2128
7 0 0 0 0 0 0 0 6 4 26 42 16 4 0 0 0 0 16 182 662 1492 1590 1817 1543 1903 1959 2535 2612 2534 1910 1855
0 2 0 0 0 1 1 0 0 0 1 25 2 0 0 0 0 0 127 8 375 1651 2009 1813 1771 1868 2057 2285 2415 2636 2367 2096
0 0 5 3 0 0 0 9 200 4 31 82 95 1 6 0 22 572 108 798 849 1671 2461 2010 1890 1895 2139 2242 2411 2725 2726 2646
0 2 10 24 7 14 8 5 7 28 54 75 239 92 148 11 207 20 780 1342 1414 2082 2781 2454 2331 2386 2760 2507 2491 2840 2863 2697
0 0 0 0 3 22 39 20 13 19 24 24 207 6 57 256 155 154 357 981 1510 2578 3433 3742 3545 3147 3320 2856 2874 2866 3081 3123
0 0 0 0 0 8 25 20 20 21 1 0 82 294 77 103 114 311 1133 1341 1653 2792 3645 3408 4027 3722 3317 3768 3125 3206 3539 3206
0 2 2 0 0 1 12 23 38 32 39 36 24 335 228 1252 1455 1624 1027 1877 2513 2923 3376 3309 3538 4056 3964 4144 3748 4123 4163 4129
42 79 54 0 24 28 15 29 19 22 39 49 118 273 650 1190 1474 1712 1635 2051 2817 3362 3967 4071 3526 3678 4031 3982 5074 4455 4521 4693
35 32 0 0 2 29 58 5 30 53 33 44 200 118 1812 1457 1354 1315 1249 2058 3123 3228 3986 5285 4225 4465 4210 4448 4391 5023 4413 4866
19 19 5 14 14 4 11 0 8 140 86 95 575 626 1394 1067 1289 1609 1632 1723 3163 3049 3231 3984 4570 4817 4592 4618 4576 4694 4717 4821
75 107 4 15 21 29 6 2 299 385 657 707 922 1018 836 823 1062 1379 1676 1757 2539 3310 3784 4131 4243 4072 4465 4552 4550 4538 4151 4521
238 103 30 112 104 157 380 236 113 366 380 394 463 510 735 645 1038 1196 1790 1777 2216 3500 4197 4289 4239 4559 4641 3582 2307 2594 2372 1907
128 124 202 38 55 98 222 166 119 252 338 208 153 248 311 345 1037 1199 1729 2100 1958 2525 4561 3767 3737 4488 3815 1596 1702 1766 1599 784
139 120 143 131 160 81 165 244 61 350 218 22 12 96 128 155 402 1025 1580 2319 2083 2641 3887 3316 3331 3065 3167 1670 1431 1386 1025 457
59 82 173 149 121 137 97 124 104 7 84 5 13 31 40 352 913 941 1517 1466 2617 3524 3130 3247 3267 3189 1838 1254 1066 989 707 314
38 268 346 63 156 124 234 251 173 76 197 98 70 120 171 261 821 1056 1491 2184 3113 3091 3372 2834 2996 2529 2056 1522 1513 1053 582 421
67 28 45 66 11 10 127 106 118 46 66 36 38 12 104 232 853 1043 1472 1636 2658 2715 3367 2702 2381 2240 2155 1834 1373 964 483 171
CIN
-0 -0 -0 -0 -0 -0 -0 -0 -0 -0 -0 -7 -0 -0 -0 -0 -0 -0 -0 -0 -10 -17 -39 -80 -41 -45 -40 -57 -31 -16 -7 -4
-0 -0 -0 -0 -0 -0 -0 -0 -0 -0 -1 -1 -5 -0 -0 -0 -0 -0 -7 -53 -12 -16 -32 -48 -44 -38 -24 -59 -62 -48 -29 -10
-2 -0 -0 -0 -0 -0 -0 -0 -0 -0 -3 -4 -9 -11 -0 -0 -0 -0 -5 -41 -15 -7 -30 -30 -51 -26 -27 -31 -50 -23 -31 -28
-0 -1 -0 -0 -0 -1 -0 -0 -0 -0 -0 -34 -14 -0 -0 -0 -0 -0 -15 -52 -11 -20 -24 -38 -60 -26 -27 -20 -39 -42 -34 -30
-0 -0 -0 -1 -0 -0 -0 -0 -0 -1 -1 -15 -22 -11 -15 -1 -2 -12 -8 -20 -18 -22 -27 -42 -64 -43 -26 -21 -18 -30 -25 -10
-0 -1 -8 -6 -5 -1 -1 -0 -1 -0 -1 -5 -15 -13 -0 -2 -7 -19 -9 -12 -20 -21 -15 -33 -64 -60 -22 -23 -22 -21 -26 -33
-0 -0 -0 -0 -2 -2 -0 -0 -0 -2 -5 -11 -20 -7 -14 -12 -0 -4 -5 -9 -26 -13 -11 -26 -37 -44 -28 -19 -32 -28 -29 -33
-0 -0 -0 -0 -0 -2 -1 -1 -1 -2 -4 -0 -10 -3 -5 -2 -0 -3 -2 -4 -24 -9 -7 -18 -14 -40 -44 -24 -45 -40 -20 -36
-11 -0 -0 -0 -0 -1 -4 -2 -0 -0 -8 -1 -8 -1 -1 -22 -32 -16 -14 -22 -13 -3 -3 -32 -17 -21 -30 -23 -33 -24 -24 -20
-24 -1 -3 -0 -3 -3 -5 -4 -3 -2 -1 -7 -19 -6 -11 -19 -40 -46 -49 -36 -4 -4 -5 -18 -42 -20 -10 -23 -10 -19 -18 -15
-0 -0 -0 -0 -1 -1 -5 -11 -2 -1 -2 -8 -8 -9 -45 -23 -31 -55 -62 -52 -17 -11 -3 -6 -24 -12 -21 -7 -9 -5 -8 -6
-1 -0 -0 -1 -3 -22 -17 -0 -15 -12 -9 -2 -18 -18 -27 -19 -33 -38 -41 -67 -27 -19 -14 -3 -5 -3 -10 -4 -2 -2 -2 -2
-0 -0 -0 -1 -3 -15 -7 -16 -8 -4 -4 -13 -17 -44 -32 -44 -38 -45 -13 -46 -36 -2 -1 -5 -3 -2 -5 -2 -1 -13 -26 -8
-0 -0 -0 -50 -17 -14 -14 -5 -1 -5 -6 -31 -57 -84 -107 -67 -23 -30 -1 -6 -16 -0 -0 -0 -1 -1 -1 -85 -239 -167 -173 -224
-0 -0 -18 -26 -33 -50 -43 -1 -6 -1 -1 -29 -54 -64 -74 -72 -12 -2 -7 -0 -3 -1 -5 -7 -5 -1 -31 -304 -292 -239 -257 -426
-17 -5 -2 -10 -10 -7 -32 -40 -203 -31 -32 -1 -67 -79 -62 -54 -12 -1 -11 -11 -1 -0 -9 -3 -6 -18 -61 -262 -290 -272 -336 -480
-1 -1 -7 -18 -9 -12 -45 -143 -207 -354 -26 -6 -55 -86 -63 -19 -2 -3 -3 -36 -4 -4 -12 -2 -5 -2 -189 -302 -341 -333 -385 -477
-0 -2 -6 -4 -9 -13 -2 -37 -189 -116 -1 -34 -64 -25 -7 -8 -2 -2 -4 -9 -3 -9 -12 -14 -17 -34 -93 -197 -209 -293 -386 -389
-0 -1 -4 -0 -0 -20 -1 -0 -1 -0 -0 -87 -37 -37 -6 -1 -2 -1 -2 -17 -3 -3 -5 -11 -14 -14 -33 -86 -168 -239 -356 -429
Wind_Speed
15 15 14 15 11 14 17 16 13 13 7 12 13 10 2 8 12 11 10 5 16 18 20 20 19 19 19 20 18 17 16 14
7 6 12 16 13 11 11 10 13 12 13 4 9 9 6 4 2 8 10 7 4 15 19 19 19 18 18 20 20 19 16 14
11 9 14 10 11 12 15 11 11 10 4 7 4 5 5 4 2 7 7 9 6 8 16 19 18 18 18 19 18 17 16 15
19 12 15 14 15 15 9 14 10 13 10 11 9 10 3 4 5 5 8 5 4 8 14 18 19 18 18 17 18 17 17 14
17 17 17 16 16 18 14 15 12 11 11 9 9 3 5 6 3 7 7 8 7 9 13 16 18 16 18 17 16 17 15 15
14 16 11 17 15 13 13 12 14 13 14 8 6 9 10 3 8 3 6 6 6 9 12 13 15 15 13 16 16 16 16 17
23 21 21 20 17 12 13 14 15 14 15 12 10 10 10 9 8 4 7 5 6 8 9 10 12 13 12 15 15 15 15 16
20 21 23 24 23 20 16 16 16 17 19 17 15 12 10 10 7 1 7 7 6 9 11 12 12 13 13 12 14 14 13 14
19 20 22 24 21 21 20 21 19 19 18 15 14 12 9 12 13 12 6 8 7 9 11 13 11 12 12 11 12 11 11 11
13 15 23 13 16 17 20 18 16 17 14 9 11 10 12 12 11 8 9 9 3 5 5 11 14 12 10 11 8 10 10 10
13 16 23 20 15 14 15 16 14 15 12 7 13 7 16 15 10 7 5 6 8 4 5 6 11 10 12 10 10 8 11 10
12 18 24 13 16 12 13 13 20 12 6 7 7 3 7 11 11 10 10 2 7 7 6 6 6 8 11 10 10 9 8 8
14 17 20 14 17 18 7 11 9 8 10 8 5 7 8 10 11 12 11 7 5 7 4 6 6 8 9 9 8 4 3 3
16 12 20 16 8 4 11 1 3 3 2 3 5 7 9 11 11 13 12 8 4 6 6 7 6 8 9 10 8 7 8 9
8 9 13 12 12 10 18 7 3 3 4 1 1 4 8 10 11 11 15 9 3 8 8 4 2 7 12 10 9 8 10 10
11 11 9 12 10 9 11 10 17 5 12 3 2 5 5 7 10 9 11 13 6 10 11 7 6 5 11 12 10 9 10 10
15 14 13 16 11 5 6 9 11 17 18 8 7 7 9 8 5 8 10 9 5 4 5 6 9 9 12 11 11 11 10 10
13 13 11 10 10 8 11 12 9 9 24 12 11 10 9 11 7 7 8 12 10 7 6 5 8 10 11 12 12 13 13 10
15 15 18 18 17 15 15 16 12 14 15 14 14 14 13 12 11 6 7 11 11 8 8 9 7 10 12 12 11 11 10 10
Wind_Direction
197 202 215 254 224 258 279 287 286 288 285 170 190 148 209 230 222 214 202 192 170 175 172 170 172 170 169 168 175 187 189 189
180 205 218 229 268 245 229 258 271 281 293 317 125 113 77 281 189 211 140 127 247 179 170 169 170 168 169 168 177 182 193 193
211 184 246 193 233 253 277 288 290 266 286 70 108 142 218 283 195 197 158 149 191 188 171 164 168 164 173 168 177 180 193 189
260 247 199 248 263 224 215 231 254 289 294 211 156 145 104 319 289 301 122 136 218 201 169 165 168 169 175 175 179 183 189 187
265 269 239 228 227 237 274 282 247 253 253 74 10 67 218 258 177 136 157 165 249 189 171 169 170 175 175 180 182 182 187 189
257 243 272 325 222 285 243 266 273 262 273 283 192 188 265 243 92 64 175 158 232 193 175 172 169 175 174 180 182 182 188 188
277 291 294 292 275 264 241 261 267 295 314 308 359 347 346 345 37 200 206 173 208 190 168 164 163 174 179 179 181 186 185 188
269 273 274 274 277 277 270 269 274 270 275 288 303 315 316 299 291 314 17 143 188 183 167 174 172 177 181 178 188 186 185 194
256 256 258 255 264 277 281 280 280 271 279 284 280 293 300 47 42 31 28 333 164 189 181 178 187 176 185 186 183 186 187 181
277 282 259 271 284 293 291 288 289 289 292 296 306 305 21 67 61 39 355 344 302 180 195 176 181 185 185 190 188 186 190 185
262 260 273 265 268 280 299 316 302 301 271 322 313 297 49 31 17 342 356 327 310 225 191 167 175 177 176 185 193 190 195 194
247 259 263 277 285 321 330 283 297 342 348 309 0 60 18 2 352 343 322 347 313 260 191 161 161 164 167 180 182 194 192 194
244 243 257 276 277 291 171 265 347 14 24 53 20 20 346 351 344 330 322 327 260 255 181 159 184 169 171 172 174 125 111 174
256 266 270 20 339 2 351 317 178 80 47 36 7 351 348 352 337 328 321 311 248 240 158 155 166 163 163 108 101 103 103 101
261 283 325 302 301 343 2 315 330 250 134 184 200 358 355 333 321 320 327 308 234 255 129 146 136 164 129 136 132 131 123 115
310 301 305 335 332 351 316 332 339 20 337 245 312 312 302 300 318 323 313 317 248 241 141 169 165 188 122 144 146 146 136 128
280 271 259 270 271 259 302 17 351 340 300 285 281 273 294 298 295 303 302 298 278 151 154 179 167 171 144 152 157 151 139 139
287 325 317 306 298 264 216 199 189 262 276 288 288 285 276 285 271 276 291 300 306 158 165 218 141 143 155 164 163 151 148 152
310 304 298 300 289 281 277 287 253 250 265 276 266 266 265 265 265 255 254 278 283 240 181 189 159 162 159 169 154 154 151 147